JCSAT-110A (JCSAT-15)

Last updated on Mon Oct 20 2025 00:02:49 GMT+0000 (Coordinated Universal Time)

1 41903U 16082A 25292.00367604 .00000000 00000+0 00000+0 0 9998 2 41903 0.0210 219.4801 0000436 352.0662 287.5775 1.00269140 32340
UTC large
Height (km)
Speed (km/s)
/
Latitude / Longitude
Inclination (degrees)
Orbital Period (minutes)
Azimuth
Elevation
Range (km)
Doppler Factor

Next 0 passes for location: London (51.5072 / 0.1276)

Sorry there are no passes over London.